Terminal Aerodrome Forecast
Issued by NWS Northern Indiana

Home | Current Version | Previous Version | Graphics & Text | Print | Product List | Glossary On
Versions: 1 2 3 4 5 6 7 8 9 10 11 12 13
000
FTUS43 KIWX 260200 AAA
TAFFWA
TAF AMD
KFWA 260252Z 2603/2624 08007KT P6SM OVC070
     FM260500 06009KT 5SM -SN BKN025
      TEMPO 2608/2611 2SM -SN OVC020
     FM261600 03010KT P6SM OVC030
     FM261800 03010KT P6SM BKN035=

USA.gov is the U.S. government's official web portal to all federal, state and local government web resources and services.